Content
SEND FEEDBACK

Daily
Averages
Monthly
Summary
United States of America

UMATAC, GUAM


Home > North America > United States > Guam
Elevation: 190 feet     Latitude: 13 17N     Longitude: 144 40E

WEATHER
 
SELECT A DAY
Number of Records: 351,709;   Date Range: 1/1/95 - 10/22/14
 
SHARE

PRINT THIS DATA

[ ← Previous Day ]
WEATHER ALMANAC - JANUARY 17, 2013
[ Next Day → ]
[ °C ]   °F
Weather ElementAverageHighLow
Temperature78.1 °F84.6 °F (1:55 pm)71.6 °F (7:10 pm)
Dewpoint71.5 °F75.2 °F (12:24 am)66.2 °F (7:10 pm)
Humidity80.7 %94 % (12:24 am)64 % (8:55 am)
Barometer29.84 in29.90 in (8:55 am)29.78 in (1:55 pm)
Wind Speed13.7 mph19.6 mph (11:26 am)
Wind Gust20.7 mph (12:55 pm)
Weather ElementAverage
Visibility10 mi
Wind DirectionENE (66.2 °)

Weather ElementTotal
Precipitation---
Cooling Degree Days13.1 (Base 65)
Growing Degree Days28.1 (Base 50)
Averaged from 63 records on January 17, 2013
WEATHER CONDITIONS BREAKOUT
WIND DIRECTION BREAKOUT
WEATHER BY HOUR - JANUARY 17, 2013
[ °C ]   °F
Local TimeTemperatureDewpointHumidityBarometerVisibilityWind DirectionWind SpeedGust SpeedPrecipitationEventsConditions
12:24 AM77.0 °F75.2 °F94 %29.86 in10.0 miNE (50°)11.5 mphScattered Clouds
12:27 AM77.0 °F75.2 °F94 %29.86 in10.0 miNE (50°)11.5 mphMostly Cloudy
12:55 AM77.2 °F74.3 °F91 %29.86 in10.0 miNE (50°)12.7 mphMostly Cloudy
1:02 AM77.0 °F75.2 °F94 %29.86 in10.0 miNE (50°)11.5 mphScattered Clouds
1:03 AM77.0 °F75.2 °F94 %29.86 in10.0 miENE (60°)11.5 mphMostly Cloudy
1:06 AM77.0 °F75.2 °F94 %29.86 in10.0 miNE (50°)11.5 mphScattered Clouds
1:29 AM77.0 °F75.2 °F94 %29.86 in10.0 miNE (50°)11.5 mphMostly Cloudy
1:35 AM77.0 °F75.2 °F94 %29.86 in10.0 miENE (60°)12.7 mphScattered Clouds
1:55 AM76.8 °F73.9 °F91 %29.86 in10.0 miENE (60°)11.5 mphScattered Clouds
2:55 AM72.3 °F69.3 °F90 %29.86 in10.0 miENE (60°)10.4 mphPartly Cloudy
3:09 AM75.2 °F73.4 °F94 %29.85 in10.0 miENE (60°)10.4 mphMostly Cloudy
3:21 AM77.0 °F73.4 °F89 %29.85 in10.0 miENE (60°)10.4 mphScattered Clouds
3:55 AM75.9 °F72.9 °F90 %29.85 in10.0 miENE (60°)10.4 mphPartly Cloudy
4:31 AM75.2 °F71.6 °F89 %29.84 in10.0 miENE (60°)11.5 mphMostly Cloudy
4:33 AM75.2 °F71.6 °F89 %29.84 in10.0 miENE (60°)11.5 mphScattered Clouds
4:55 AM75.2 °F67.5 °F77 %29.85 in10.0 miENE (60°)13.8 mphScattered Clouds
5:55 AM74.3 °F71.1 °F90 %29.85 in10.0 miEast (90°)11.5 mphMostly Cloudy
6:00 AM75.2 °F71.6 °F89 %29.85 in10.0 miEast (80°)13.8 mphScattered Clouds
6:10 AM75.2 °F71.6 °F89 %29.85 in10.0 miEast (80°)15.0 mphMostly Cloudy
6:26 AM75.2 °F71.6 °F89 %29.86 in10.0 miEast (80°)13.8 mphScattered Clouds
6:31 AM75.2 °F71.6 °F89 %29.86 in10.0 miENE (70°)12.7 mphMostly Cloudy
6:45 AM75.2 °F69.8 °F83 %29.86 in10.0 miEast (80°)15.0 mphScattered Clouds
6:55 AM75.2 °F67.3 °F76 %29.86 in10.0 miENE (70°)12.7 mphScattered Clouds
7:50 AM77.0 °F69.8 °F78 %29.88 in10.0 miEast (80°)12.7 mphMostly Cloudy
7:55 AM74.8 °F69.4 °F83 %29.88 in10.0 miEast (80°)13.8 mphMostly Cloudy
8:04 AM78.8 °F68.0 °F69 %29.88 in10.0 miEast (80°)18.4 mphScattered Clouds
8:55 AM80.6 °F67.3 °F64 %29.90 in10.0 miEast (80°)16.1 mphScattered Clouds
9:18 AM80.6 °F68.0 °F65 %29.90 in10.0 miENE (70°)15.0 mphMostly Cloudy
9:21 AM80.6 °F68.0 °F65 %29.90 in10.0 miEast (80°)16.1 mphScattered Clouds
9:55 AM82.6 °F73.6 °F74 %29.89 in10.0 miEast (80°)15.0 mphScattered Clouds
10:55 AM78.3 °F69.6 °F75 %29.87 in10.0 miEast (80°)16.1 mphScattered Clouds
11:18 AM84.2 °F73.4 °F70 %29.86 in10.0 miEast (80°)15.0 mphMostly Cloudy
11:22 AM84.2 °F73.4 °F70 %29.86 in10.0 miENE (70°)16.1 mphScattered Clouds
11:26 AM84.2 °F73.4 °F70 %29.85 in10.0 miENE (70°)19.6 mphMostly Cloudy
11:37 AM84.2 °F73.4 °F70 %29.85 in10.0 miEast (80°)18.4 mphScattered Clouds
11:55 AM84.0 °F73.6 °F71 %29.83 in10.0 miEast (80°)17.3 mphPartly Cloudy
12:55 PM84.2 °F73.9 °F71 %29.80 in10.0 miEast (80°)15.0 mph20.7 mphPartly Cloudy
1:55 PM84.6 °F73.2 °F69 %29.78 in10.0 miENE (60°)15.0 mphPartly Cloudy
2:15 PM84.2 °F73.4 °F70 %29.78 in10.0 miENE (60°)15.0 mphMostly Cloudy
2:18 PM84.2 °F73.4 °F70 %29.78 in10.0 miENE (60°)15.0 mphScattered Clouds
2:55 PM84.0 °F72.7 °F69 %29.78 in10.0 miENE (60°)16.1 mphScattered Clouds
3:55 PM78.1 °F67.8 °F71 %29.79 in10.0 miENE (60°)16.1 mphPartly Cloudy
4:29 PM82.4 °F73.4 °F74 %29.80 in10.0 miENE (60°)13.8 mphMostly Cloudy
4:33 PM82.4 °F73.4 °F74 %29.80 in10.0 miENE (60°)16.1 mphScattered Clouds
4:37 PM82.4 °F73.4 °F74 %29.80 in10.0 miENE (60°)12.7 mphMostly Cloudy
4:40 PM82.4 °F73.4 °F74 %29.80 in10.0 miENE (60°)13.8 mphScattered Clouds
4:42 PM82.4 °F73.4 °F74 %29.80 in10.0 miENE (60°)15.0 mphMostly Cloudy
4:51 PM78.8 °F71.6 °F78 %29.81 in10.0 miENE (60°)15.0 mphScattered Clouds
4:55 PM79.3 °F70.5 °F74 %29.81 in10.0 miENE (70°)16.1 mphScattered Clouds
5:55 PM77.5 °F71.2 °F81 %29.83 in10.0 miENE (70°)12.7 mphScattered Clouds
6:55 PM72.3 °F66.7 °F83 %29.84 in10.0 miENE (60°)11.5 mphScattered Clouds
7:00 PM73.4 °F68.0 °F83 %29.84 in10.0 miENE (60°)13.8 mphMostly Cloudy
7:10 PM71.6 °F66.2 °F83 %29.85 in10.0 miENE (70°)12.7 mphScattered Clouds
7:14 PM71.6 °F66.2 °F83 %29.85 in10.0 miENE (60°)10.4 mphMostly Cloudy
7:22 PM71.6 °F66.2 °F83 %29.85 in10.0 miENE (70°)11.5 mphScattered Clouds
7:55 PM72.9 °F67.3 °F83 %29.86 in10.0 miENE (60°)12.7 mphPartly Cloudy
8:55 PM77.0 °F71.4 °F83 %29.85 in10.0 miENE (60°)12.7 mphPartly Cloudy
9:21 PM77.0 °F71.6 °F83 %29.85 in10.0 miENE (70°)13.8 mphMostly Cloudy
9:55 PM77.9 °F72.5 °F83 %29.84 in10.0 miENE (70°)15.0 mphScattered Clouds
10:55 PM77.5 °F71.1 °F80 %29.84 in10.0 miENE (70°)13.8 mphScattered Clouds
11:37 PM77.0 °F71.6 °F83 %29.83 in10.0 miENE (60°)12.7 mphMostly Cloudy
11:38 PM77.0 °F71.6 °F83 %29.83 in10.0 miENE (60°)12.7 mphScattered Clouds
11:55 PM76.5 °F69.8 °F80 %29.83 in10.0 miENE (60°)15.0 mphPartly Cloudy
Hourly data recorded from PGUA, located miles away from Umatac, Guam







STORIES FROM OUR PARTNERS